| time (UTC) | temp C | wind direction | speed KPH | gust KPH | rain 1hr cm | rain 24hr cm | rain mn cm | humidity % | barometer mb |
| 20260507213031 | 27 | 61 | 3.2 | 8.0 | 0.00 | 0.00 | 0.00 | 16 | 1006.2 |
| 20260507211525 | 26 | 63 | 6.4 | 14.5 | 0.00 | 0.00 | 0.00 | 16 | 1006.6 |
| 20260507210020 | 26 | 63 | 0.0 | 11.3 | 0.00 | 0.00 | 0.00 | 18 | 1006.9 |
| 20260507204519 | 26 | 55 | 1.6 | 11.3 | 0.00 | 0.00 | 0.00 | 20 | 1007.0 |
| 20260507203018 | 26 | 55 | 6.4 | 16.1 | 0.00 | 0.00 | 0.00 | 19 | 1007.0 |
| 20260507201515 | 26 | 21 | 1.6 | 16.1 | 0.00 | 0.00 | 0.00 | 19 | 1007.3 |
| 20260507200022 | 26 | 17 | 0.0 | 14.5 | 0.00 | 0.00 | 0.00 | 19 | 1007.8 |
| 20260507194510 | 25 | 17 | 0.0 | 12.9 | 0.00 | 0.00 | 0.00 | 20 | 1008.0 |
| 20260507193008 | 25 | 17 | 0.0 | 12.9 | 0.00 | 0.00 | 0.00 | 21 | 1008.2 |
| 20260507191507 | 25 | 15 | 1.6 | 12.9 | 0.00 | 0.00 | 0.00 | 20 | 1008.5 |
| 20260507190010 | 24 | 15 | 0.0 | 12.9 | 0.00 | 0.00 | 0.00 | 20 | 1008.9 |
| 20260507184600 | 24 | 16 | 0.0 | 12.9 | 0.00 | 0.00 | 0.00 | 20 | 1009.0 |
| 20260507183100 | 23 | 14 | 0.0 | 8.0 | 0.00 | 0.00 | 0.00 | 21 | 1009.2 |
| 20260507181553 | 23 | 15 | 0.0 | 8.0 | 0.00 | 0.00 | 0.00 | 22 | 1009.5 |
| 20260507180053 | 23 | 15 | 1.6 | 12.9 | 0.00 | 0.00 | 0.00 | 21 | 1009.7 |
| 20260507174548 | 22 | 15 | 0.0 | 9.7 | 0.00 | 0.00 | 0.00 | 23 | 1009.8 |
| 20260507173052 | 22 | 14 | 1.6 | 14.5 | 0.00 | 0.00 | 0.00 | 23 | 1009.9 |
| 20260507171542 | 22 | 11 | 3.2 | 9.7 | 0.00 | 0.00 | 0.00 | 24 | 1010.0 |
| 20260507170036 | 21 | 10 | 0.0 | 9.7 | 0.00 | 0.00 | 0.00 | 24 | 1010.3 |
| 20260506223054 | 26 | 232 | 0.0 | 19.3 | 0.00 | 0.00 | 0.00 | 15 | 1005.5 |
| 20260506221553 | 26 | 240 | 0.0 | 16.1 | 0.00 | 0.00 | 0.00 | 15 | 1005.6 |
| 20260506220059 | 26 | 242 | 1.6 | 12.9 | 0.00 | 0.00 | 0.00 | 15 | 1005.7 |
| 20260506214550 | 26 | 257 | 1.6 | 16.1 | 0.00 | 0.00 | 0.00 | 15 | 1005.8 |